SCP
0 0 0 0 0 0 0 0 0 0 0 0 0 0 0 0 0 0 0 0 0 0
0 0 0 0 0 0 0 0 0 0 0 0 0 0 0 0 0 0 0 0 0 0
0 0 0 0 0 0 0 0 0 0 0 0 0 0 0 0 0 0 0 0 0 0
0 0 0 0 0 0 0 0 0 0 0 0 0 0 0 0 0 0 0 0 0 0
0 0 0 0 0 0 0 0 0 0 0 0 0 0 0 0 0 0 0 0 0 0
0 0 0 0 0 0 0 0 0 0 0 0 0 0 0 0 0 0 0 0 0 0
0 0 0 0 0 0 0 0 0 0 0 0 0 0 0 0 0 0 0 0 0 0
0 0 0 0 0 0 0 0 0 0 0 0 0 0 0 0 0 0 0 -0 0 0
0 0 0 0 0 0 0 0 0 0 0 0 0 0 0 0 0 0 -0 -0 0 0
0 0 0 0 0 0 0 0 0 0 0 0 0 0 0 0 0 0 -0 -0 0 0
0 0 0 0 0 0 0 0 0 0 0 0 0 0 0 0 0 0 -0 -0 -0 0
0 0 0 0 0 0 0 0 0 0 0 0 0 0 0 0 0 -0 -0 -0 0 0
0 0 0 0 0 0 0 0 0 0 0 0 0 0 0 0 0 -0 -0 -0 -0 0
0 0 0 0 0 0 0 0 0 0 0 0 0 0 0 0 0 -0 -0 -0 0 0
Wind_Speed_500mb
26 30 32 31 32 37 30 27 26 22 18 14 14 12 11 11 10 12 8 9 10 9
26 34 39 39 42 40 33 28 26 25 22 17 14 14 13 12 14 12 11 12 11 11
24 30 37 44 48 46 41 36 31 30 27 21 18 18 18 16 18 19 17 15 18 13
20 20 26 38 44 47 44 38 38 35 31 28 22 20 22 22 20 22 21 21 18 17
15 17 21 28 37 43 46 46 41 37 34 30 24 23 21 23 22 24 25 26 22 22
19 20 23 27 35 40 42 41 41 42 41 36 32 26 23 20 23 27 29 30 27 25
20 19 21 26 32 38 38 39 39 46 41 36 37 30 29 23 24 22 29 32 31 28
21 23 25 28 29 34 41 42 44 46 44 44 42 38 36 31 27 26 31 31 30 29
22 24 27 30 31 32 38 47 47 50 45 47 50 50 45 45 30 31 31 31 29 30
23 22 22 26 33 37 39 44 48 49 50 47 52 47 50 36 22 36 32 32 32 32
21 23 22 24 23 29 42 43 50 52 56 58 53 51 50 32 30 38 32 35 36 40
16 19 22 24 26 27 29 40 51 56 60 66 59 52 42 29 35 35 37 35 36 40
21 20 23 29 34 33 32 33 37 54 60 67 55 49 40 35 32 48 40 36 40 39
24 27 26 28 32 35 38 32 29 37 58 60 55 41 40 34 36 44 37 37 36 28
Wind_Direction_500mb
257 237 234 225 235 216 210 210 223 214 210 230 227 213 205 209 202 220 217 207 192 193
258 246 233 225 224 211 209 210 225 219 210 235 234 219 218 201 217 211 208 217 205 188
268 260 245 234 225 211 215 218 230 227 216 229 242 232 228 222 228 225 226 221 229 231
267 269 251 235 222 215 221 223 233 232 225 228 238 239 227 222 229 236 235 231 237 253
260 261 245 221 218 221 228 227 230 232 230 230 231 239 241 233 241 245 243 245 246 258
277 269 252 239 233 237 238 235 231 233 235 236 239 230 242 234 240 252 251 248 253 259
277 276 263 252 248 243 246 240 232 233 240 230 234 244 231 231 238 253 263 254 251 255
279 278 262 260 258 256 249 248 246 239 241 243 241 233 231 226 221 248 269 258 253 257
271 277 272 264 261 260 255 248 246 244 242 239 237 237 232 238 235 213 249 257 255 264
262 279 287 277 279 263 263 251 248 242 244 235 230 228 230 243 205 213 242 247 257 263
300 291 289 273 282 274 277 255 248 246 241 234 235 230 240 216 216 237 242 251 259 274
329 313 305 302 297 295 287 264 257 248 243 239 236 233 236 205 215 235 248 258 263 267
335 314 297 295 294 296 295 291 280 262 251 242 234 237 217 218 223 243 252 261 263 260
341 328 321 303 299 303 300 299 293 281 255 240 227 223 201 206 228 243 249 262 265 258
Wind_Speed_850mb
26 30 32 31 32 37 30 27 26 22 18 14 14 12 11 11 10 12 8 9 10 9
26 34 39 39 42 40 33 28 26 25 22 17 14 14 13 12 14 12 11 12 11 11
24 30 37 44 48 46 41 36 31 30 27 21 18 18 18 16 18 19 17 15 18 13
20 20 26 38 44 47 44 38 38 35 31 28 22 20 22 22 20 22 21 21 18 17
15 17 21 28 37 43 46 46 41 37 34 30 24 23 21 23 22 24 25 26 22 22
19 20 23 27 35 40 42 41 41 42 41 36 32 26 23 20 23 27 29 30 27 25
20 19 21 26 32 38 38 39 39 46 41 36 37 30 29 23 24 22 29 32 31 28
21 23 25 28 29 34 41 42 44 46 44 44 42 38 36 31 27 26 31 31 30 29
22 24 27 30 31 32 38 47 47 50 45 47 50 50 45 45 30 31 31 31 29 30
23 22 22 26 33 37 39 44 48 49 50 47 52 47 50 36 22 36 32 32 32 32
21 23 22 24 23 29 42 43 50 52 56 58 53 51 50 32 30 38 32 35 36 40
16 19 22 24 26 27 29 40 51 56 60 66 59 52 42 29 35 35 37 35 36 40
21 20 23 29 34 33 32 33 37 54 60 67 55 49 40 35 32 48 40 36 40 39
24 27 26 28 32 35 38 32 29 37 58 60 55 41 40 34 36 44 37 37 36 28
Wind_Direction_850mb
257 237 234 225 235 216 210 210 223 214 210 230 227 213 205 209 202 220 217 207 192 193
258 246 233 225 224 211 209 210 225 219 210 235 234 219 218 201 217 211 208 217 205 188
268 260 245 234 225 211 215 218 230 227 216 229 242 232 228 222 228 225 226 221 229 231
267 269 251 235 222 215 221 223 233 232 225 228 238 239 227 222 229 236 235 231 237 253
260 261 245 221 218 221 228 227 230 232 230 230 231 239 241 233 241 245 243 245 246 258
277 269 252 239 233 237 238 235 231 233 235 236 239 230 242 234 240 252 251 248 253 259
277 276 263 252 248 243 246 240 232 233 240 230 234 244 231 231 238 253 263 254 251 255
279 278 262 260 258 256 249 248 246 239 241 243 241 233 231 226 221 248 269 258 253 257
271 277 272 264 261 260 255 248 246 244 242 239 237 237 232 238 235 213 249 257 255 264
262 279 287 277 279 263 263 251 248 242 244 235 230 228 230 243 205 213 242 247 257 263
300 291 289 273 282 274 277 255 248 246 241 234 235 230 240 216 216 237 242 251 259 274
329 313 305 302 297 295 287 264 257 248 243 239 236 233 236 205 215 235 248 258 263 267
335 314 297 295 294 296 295 291 280 262 251 242 234 237 217 218 223 243 252 261 263 260
341 328 321 303 299 303 300 299 293 281 255 240 227 223 201 206 228 243 249 262 265 258